| time (UTC) | temp F | wind direction | speed MPH | gust MPH | rain 1hr in | rain 24hr in | rain mn in | humidity % | barometer mb |
| 20260902234904 | 90 | 169 | 6.0 | 14.0 | 0.00 | 3.29 | 0.00 | 68 | 1011.5 |
| 20260902234403 | 90 | 159 | 9.0 | 14.0 | 0.00 | 3.36 | 0.00 | 67 | 1011.6 |
| 20260902233403 | 91 | 150 | 5.0 | 10.0 | 0.00 | 3.48 | 0.00 | 67 | 1011.7 |
| 20260902232904 | 91 | 129 | 5.0 | 14.0 | 0.00 | 3.54 | 0.00 | 66 | 1011.7 |
| 20260902232405 | 92 | 131 | 7.0 | 14.0 | 0.00 | 3.60 | 0.00 | 65 | 1011.6 |
| 20260902231905 | 92 | 134 | 7.0 | 15.0 | 0.00 | 3.65 | 0.00 | 65 | 1011.6 |
| 20260902231404 | 92 | 157 | 5.0 | 15.0 | 0.00 | 3.72 | 0.00 | 65 | 1011.6 |
| 20260902230904 | 93 | 151 | 9.0 | 13.0 | 0.00 | 3.77 | 0.00 | 64 | 1011.5 |
| 20260902230404 | 94 | 164 | 4.0 | 13.0 | 0.00 | 3.81 | 0.00 | 64 | 1011.5 |
| 20260902225903 | 94 | 166 | 7.0 | 14.0 | 0.00 | 3.87 | 0.00 | 63 | 1011.5 |
| 20260902225404 | 94 | 143 | 10.0 | 14.0 | 0.00 | 3.90 | 0.00 | 62 | 1011.4 |
| 20260902224904 | 95 | 142 | 7.0 | 17.0 | 0.00 | 3.95 | 0.00 | 62 | 1011.4 |
| 20260902223904 | 96 | 180 | 7.0 | 16.0 | 0.00 | 4.05 | 0.00 | 59 | 1011.4 |
| 20260902223404 | 96 | 165 | 5.0 | 16.0 | 0.00 | 4.11 | 0.00 | 59 | 1011.4 |
| 20260902222405 | 97 | 200 | 5.0 | 20.0 | 0.00 | 4.23 | 0.00 | 58 | 1011.5 |
| 20260902221905 | 97 | 161 | 6.0 | 20.0 | 0.00 | 4.29 | 0.00 | 58 | 1011.5 |
| 20260902221404 | 97 | 159 | 5.0 | 17.0 | 0.00 | 4.35 | 0.00 | 59 | 1011.5 |
| 20260902220904 | 97 | 167 | 5.0 | 15.0 | 0.00 | 4.40 | 0.00 | 59 | 1011.5 |
| 20260902215904 | 97 | 160 | 8.0 | 16.0 | 0.00 | 4.49 | 0.00 | 61 | 1011.5 |
| 20260902214405 | 95 | 141 | 14.0 | 14.0 | 0.00 | 4.65 | 0.00 | 63 | 1011.5 |
| 20260902213904 | 95 | 152 | 6.0 | 13.0 | 0.00 | 4.69 | 0.00 | 64 | 1011.5 |
| 20260902212904 | 95 | 156 | 7.0 | 13.0 | 0.00 | 4.76 | 0.00 | 63 | 1011.6 |
| 20260902212404 | 95 | 108 | 7.0 | 12.0 | 0.00 | 4.81 | 0.00 | 62 | 1011.6 |
| 20260902211903 | 95 | 158 | 4.0 | 14.0 | 0.00 | 4.84 | 0.00 | 63 | 1011.7 |
| 20260902211404 | 96 | 163 | 6.0 | 14.0 | 0.00 | 4.88 | 0.00 | 62 | 1011.8 |
| 20260902210905 | 96 | 167 | 7.0 | 14.0 | 0.00 | 4.92 | 0.00 | 61 | 1011.9 |
| 20260902210405 | 97 | 128 | 6.0 | 14.0 | 0.00 | 4.95 | 0.00 | 61 | 1011.8 |
| 20260902205404 | 98 | 152 | 6.0 | 14.0 | 0.00 | 5.03 | 0.00 | 58 | 1011.8 |
| 20260902204904 | 98 | 179 | 2.0 | 8.0 | 0.00 | 5.05 | 0.00 | 54 | 1011.8 |
| 20260902204404 | 99 | 149 | 3.0 | 12.0 | 0.00 | 5.07 | 0.00 | 54 | 1011.9 |
| 20260902203904 | 99 | 185 | 3.0 | 12.0 | 0.00 | 5.12 | 0.00 | 54 | 1011.9 |
| 20260902203405 | 100 | 178 | 4.0 | 10.0 | 0.00 | 5.16 | 0.00 | 54 | 1012.1 |
| 20260902202905 | 100 | 117 | 1.0 | 13.0 | 0.00 | 5.19 | 0.00 | 54 | 1012.1 |
| 20260902202404 | 100 | 205 | 5.0 | 13.0 | 0.00 | 5.22 | 0.00 | 53 | 1012.2 |
| 20260902201904 | 100 | 167 | 6.0 | 13.0 | 0.00 | 5.26 | 0.00 | 53 | 1012.2 |
| 20260902201404 | 100 | 196 | 3.0 | 13.0 | 0.00 | 5.29 | 0.00 | 54 | 1012.3 |
| 20260902200904 | 99 | 173 | 5.0 | 13.0 | 0.00 | 5.33 | 0.00 | 54 | 1012.4 |
| 20260902195905 | 99 | 180 | 3.0 | 9.0 | 0.00 | 5.41 | 0.00 | 55 | 1012.6 |
| 20260902195404 | 98 | 156 | 4.0 | 8.0 | 0.00 | 5.42 | 0.00 | 56 | 1012.7 |
| 20260902194904 | 98 | 200 | 4.0 | 8.0 | 0.00 | 5.46 | 0.00 | 54 | 1012.7 |
| 20260902194404 | 98 | 191 | 3.0 | 8.0 | 0.00 | 5.50 | 0.00 | 57 | 1012.8 |
| 20260902193403 | 98 | 197 | 2.0 | 7.0 | 0.00 | 5.57 | 0.00 | 57 | 1012.8 |
| 20260902192904 | 97 | 211 | 1.0 | 9.0 | 0.00 | 5.60 | 0.00 | 58 | 1012.9 |
| 20260902192405 | 97 | 229 | 2.0 | 9.0 | 0.00 | 5.62 | 0.00 | 58 | 1012.9 |
| 20260902191904 | 97 | 193 | 4.0 | 7.0 | 0.00 | 5.65 | 0.00 | 56 | 1012.9 |
| 20260902191405 | 96 | 208 | 3.0 | 12.0 | 0.00 | 5.67 | 0.00 | 57 | 1012.9 |
| 20260902190904 | 96 | 203 | 4.0 | 12.0 | 0.00 | 5.69 | 0.00 | 57 | 1013.0 |
| 20260902190404 | 97 | 327 | 2.0 | 7.0 | 0.00 | 5.71 | 0.00 | 57 | 1013.0 |
| 20260902185904 | 97 | 236 | 2.0 | 8.0 | 0.00 | 5.73 | 0.00 | 57 | 1013.1 |
| 20260902185405 | 97 | 208 | 2.0 | 8.0 | 0.00 | 5.75 | 0.00 | 56 | 1013.1 |
| 20260902184905 | 98 | 201 | 2.0 | 9.0 | 0.00 | 5.77 | 0.00 | 58 | 1013.2 |
| 20260902184405 | 98 | 223 | 5.0 | 9.0 | 0.00 | 5.78 | 0.00 | 57 | 1013.3 |
| 20260902183903 | 98 | 214 | 3.0 | 9.0 | 0.00 | 5.81 | 0.00 | 57 | 1013.3 |
| 20260902183405 | 98 | 186 | 5.0 | 9.0 | 0.00 | 5.82 | 0.00 | 56 | 1013.4 |
| 20260902182904 | 98 | 240 | 1.0 | 7.0 | 0.00 | 5.82 | 0.00 | 57 | 1013.5 |
| 20260902182405 | 98 | 274 | 2.0 | 8.0 | 0.00 | 5.82 | 0.00 | 57 | 1013.5 |
| 20260902181905 | 98 | 184 | 3.0 | 8.0 | 0.00 | 5.82 | 0.00 | 58 | 1013.6 |
| 20260902181404 | 97 | 196 | 3.0 | 8.0 | 0.00 | 5.82 | 0.00 | 60 | 1013.7 |
| 20260902180904 | 97 | 180 | 3.0 | 8.0 | 0.00 | 5.82 | 0.00 | 63 | 1013.8 |
| 20260902180404 | 96 | 211 | 1.0 | 8.0 | 0.00 | 5.82 | 0.00 | 64 | 1013.9 |
| 20260902175403 | 95 | 197 | 2.0 | 8.0 | 0.00 | 5.82 | 0.00 | 66 | 1014.1 |
| 20260902174904 | 94 | 251 | 2.0 | 8.0 | 0.00 | 5.82 | 0.00 | 66 | 1014.2 |
| 20260902174404 | 94 | 223 | 2.0 | 6.0 | 0.00 | 5.82 | 0.00 | 67 | 1014.3 |
| 20260902173404 | 93 | 214 | 3.0 | 7.0 | 0.00 | 5.82 | 0.00 | 68 | 1014.4 |
| 20260902172904 | 93 | 238 | 1.0 | 6.0 | 0.00 | 5.82 | 0.00 | 70 | 1014.5 |
| 20260902171905 | 92 | 223 | 3.0 | 5.0 | 0.00 | 5.82 | 0.00 | 70 | 1014.6 |
| 20260902171404 | 92 | 209 | 2.0 | 5.0 | 0.00 | 5.82 | 0.00 | 71 | 1014.5 |
| 20260902170904 | 92 | 210 | 1.0 | 6.0 | 0.00 | 5.82 | 0.00 | 71 | 1014.7 |
| 20260902170404 | 92 | 239 | 2.0 | 10.0 | 0.00 | 5.82 | 0.00 | 72 | 1014.7 |
| 20260902165905 | 91 | 209 | 3.0 | 12.0 | 0.00 | 5.82 | 0.00 | 70 | 1014.8 |
| 20260902165404 | 91 | 232 | 3.0 | 12.0 | 0.00 | 5.82 | 0.00 | 71 | 1014.9 |
| 20260902163904 | 90 | 277 | 3.0 | 8.0 | 0.00 | 5.82 | 0.00 | 73 | 1015.1 |
| 20260902163404 | 90 | 257 | 4.0 | 8.0 | 0.00 | 5.82 | 0.00 | 73 | 1015.1 |
| 20260902162405 | 90 | 252 | 3.0 | 8.0 | 0.00 | 5.82 | 0.00 | 75 | 1015.1 |
| 20260902161905 | 90 | 192 | 2.0 | 8.0 | 0.00 | 5.82 | 0.00 | 76 | 1015.1 |
| 20260902161404 | 90 | 207 | 5.0 | 8.0 | 0.00 | 5.82 | 0.00 | 76 | 1015.1 |
| 20260902160904 | 89 | 262 | 2.0 | 9.0 | 0.00 | 5.82 | 0.00 | 77 | 1015.1 |
| 20260902160404 | 89 | 225 | 2.0 | 10.0 | 0.00 | 5.82 | 0.00 | 77 | 1015.1 |
| 20260902155404 | 89 | 217 | 2.0 | 5.0 | 0.00 | 5.82 | 0.00 | 78 | 1015.1 |
| 20260902154904 | 89 | 219 | 3.0 | 12.0 | 0.00 | 5.82 | 0.00 | 80 | 1015.0 |
| 20260902154404 | 89 | 240 | 3.0 | 12.0 | 0.00 | 5.82 | 0.00 | 79 | 1014.9 |
| 20260902153903 | 88 | 211 | 2.0 | 10.0 | 0.00 | 5.82 | 0.00 | 81 | 1014.8 |
| 20260902153404 | 87 | 254 | 1.0 | 6.0 | 0.00 | 5.82 | 0.00 | 83 | 1014.8 |
| 20260902152904 | 87 | 233 | 2.0 | 6.0 | 0.00 | 5.82 | 0.00 | 84 | 1014.9 |
| 20260902151905 | 86 | 237 | 3.0 | 6.0 | 0.00 | 5.82 | 0.00 | 85 | 1014.8 |
| 20260902151405 | 85 | 225 | 2.0 | 8.0 | 0.00 | 5.82 | 0.00 | 86 | 1014.8 |
| 20260902150905 | 85 | 187 | 2.0 | 8.0 | 0.00 | 5.82 | 0.00 | 86 | 1014.8 |
| 20260902150404 | 85 | 208 | 1.0 | 6.0 | 0.00 | 5.82 | 0.00 | 87 | 1014.7 |
| 20260902145904 | 84 | 232 | 1.0 | 6.0 | 0.00 | 5.82 | 0.00 | 87 | 1014.7 |
| 20260902145404 | 84 | 215 | 1.0 | 5.0 | 0.00 | 5.82 | 0.00 | 87 | 1014.7 |
| 20260902144904 | 84 | 189 | 2.0 | 5.0 | 0.00 | 5.82 | 0.00 | 87 | 1014.7 |
| 20260902142905 | 82 | 202 | 0.0 | 0.0 | 0.00 | 5.82 | 0.00 | 87 | 1014.5 |
| 20260902142404 | 82 | 202 | 0.0 | 0.0 | 0.00 | 5.82 | 0.00 | 87 | 1014.5 |
| 20260902141903 | 82 | 202 | 0.0 | 1.0 | 0.00 | 5.82 | 0.00 | 87 | 1014.5 |
| 20260902141403 | 82 | 202 | 0.0 | 2.0 | 0.00 | 5.82 | 0.00 | 87 | 1014.6 |
| 20260902140904 | 82 | 201 | 0.0 | 3.0 | 0.00 | 5.82 | 0.00 | 87 | 1014.5 |
| 20260902140404 | 81 | 200 | 2.0 | 3.0 | 0.00 | 5.82 | 0.00 | 87 | 1014.6 |
| 20260902135905 | 81 | 196 | 0.0 | 3.0 | 0.00 | 5.82 | 0.00 | 87 | 1014.6 |
| 20260902135405 | 81 | 194 | 0.0 | 0.0 | 0.00 | 5.82 | 0.00 | 87 | 1014.6 |
| 20260902134903 | 81 | 194 | 0.0 | 0.0 | 0.00 | 5.82 | 0.00 | 87 | 1014.6 |
| 20260902134404 | 81 | 194 | 0.0 | 0.0 | 0.00 | 5.82 | 0.00 | 87 | 1014.6 |
| 20260902133905 | 81 | 194 | 0.0 | 3.0 | 0.00 | 5.82 | 0.00 | 87 | 1014.6 |
| 20260902133403 | 80 | 194 | 0.0 | 3.0 | 0.00 | 5.82 | 0.00 | 87 | 1014.5 |
| 20260902132904 | 80 | 194 | 1.0 | 3.0 | 0.00 | 5.82 | 0.00 | 87 | 1014.6 |
| 20260902132404 | 80 | 192 | 0.0 | 0.0 | 0.00 | 5.82 | 0.00 | 87 | 1014.6 |
| 20260902131905 | 80 | 192 | 0.0 | 3.0 | 0.00 | 5.82 | 0.00 | 87 | 1014.5 |
| 20260902131404 | 80 | 192 | 0.0 | 3.0 | 0.00 | 5.82 | 0.00 | 87 | 1014.5 |
| 20260902130904 | 80 | 190 | 1.0 | 3.0 | 0.00 | 5.82 | 0.00 | 87 | 1014.3 |
| 20260902130404 | 80 | 201 | 0.0 | 5.0 | 0.00 | 5.82 | 0.00 | 87 | 1014.1 |
| 20260902125904 | 80 | 213 | 1.0 | 5.0 | 0.00 | 5.82 | 0.00 | 87 | 1014.0 |
| 20260902125404 | 80 | 200 | 1.0 | 6.0 | 0.00 | 5.82 | 0.00 | 87 | 1014.1 |
| 20260902124404 | 80 | 172 | 2.0 | 6.0 | 0.00 | 5.82 | 0.00 | 87 | 1014.0 |
| 20260902122903 | 80 | 185 | 1.0 | 6.0 | 0.00 | 5.82 | 0.00 | 88 | 1013.8 |
| 20260902122404 | 80 | 201 | 2.0 | 6.0 | 0.00 | 5.82 | 0.00 | 89 | 1013.6 |
| 20260902121904 | 80 | 192 | 1.0 | 12.0 | 0.00 | 5.82 | 0.00 | 90 | 1013.6 |
| 20260902120904 | 80 | 172 | 6.0 | 12.0 | 0.00 | 5.82 | 0.00 | 91 | 1013.5 |
| 20260902115904 | 80 | 169 | 2.0 | 8.0 | 0.00 | 5.82 | 0.00 | 92 | 1013.6 |
| 20260902115404 | 80 | 192 | 5.0 | 8.0 | 0.00 | 5.82 | 0.00 | 92 | 1013.5 |
| 20260902114904 | 80 | 218 | 2.0 | 3.0 | 0.00 | 5.82 | 0.00 | 92 | 1013.2 |
| 20260902114405 | 80 | 218 | 1.0 | 3.0 | 0.00 | 5.82 | 0.00 | 92 | 1013.3 |
| 20260902113903 | 80 | 218 | 0.0 | 2.0 | 0.00 | 5.82 | 0.00 | 92 | 1013.3 |
| 20260902113403 | 80 | 218 | 1.0 | 3.0 | 0.00 | 5.82 | 0.00 | 92 | 1013.2 |
| 20260902112404 | 80 | 221 | 0.0 | 6.0 | 0.00 | 5.82 | 0.00 | 92 | 1013.2 |
| 20260902111904 | 80 | 192 | 1.0 | 5.0 | 0.00 | 5.82 | 0.00 | 91 | 1013.2 |
| 20260902111404 | 80 | 187 | 1.0 | 5.0 | 0.00 | 5.82 | 0.00 | 91 | 1013.1 |
| 20260902110904 | 80 | 186 | 1.0 | 7.0 | 0.00 | 5.82 | 0.00 | 91 | 1013.1 |
| 20260902110404 | 80 | 204 | 2.0 | 7.0 | 0.00 | 5.82 | 0.00 | 91 | 1013.0 |
| 20260902105903 | 80 | 209 | 3.0 | 5.0 | 0.00 | 5.82 | 0.00 | 91 | 1013.0 |
| 20260902105404 | 80 | 211 | 1.0 | 5.0 | 0.00 | 5.82 | 0.00 | 91 | 1013.1 |
| 20260902104905 | 80 | 190 | 1.0 | 3.0 | 0.00 | 5.82 | 0.00 | 91 | 1013.1 |
| 20260902104405 | 80 | 186 | 1.0 | 3.0 | 0.00 | 5.82 | 0.00 | 91 | 1013.0 |
| 20260902103903 | 80 | 184 | 1.0 | 2.0 | 0.00 | 5.82 | 0.00 | 91 | 1013.2 |
| 20260902103404 | 80 | 190 | 0.0 | 2.0 | 0.00 | 5.82 | 0.00 | 91 | 1013.2 |
| 20260902102904 | 80 | 190 | 0.0 | 3.0 | 0.00 | 5.82 | 0.00 | 91 | 1013.2 |
| 20260902102404 | 80 | 190 | 1.0 | 5.0 | 0.00 | 5.82 | 0.00 | 91 | 1013.1 |
| 20260902101904 | 80 | 190 | 2.0 | 5.0 | 0.00 | 5.82 | 0.00 | 91 | 1013.1 |
| 20260902101404 | 80 | 207 | 1.0 | 6.0 | 0.00 | 5.82 | 0.00 | 91 | 1013.1 |
| 20260902100904 | 80 | 186 | 1.0 | 6.0 | 0.00 | 5.82 | 0.00 | 91 | 1013.0 |
| 20260902100405 | 80 | 201 | 2.0 | 6.0 | 0.00 | 5.82 | 0.00 | 91 | 1012.9 |
| 20260902095904 | 80 | 185 | 1.0 | 6.0 | 0.00 | 5.82 | 0.00 | 91 | 1012.8 |
| 20260902094904 | 80 | 203 | 3.0 | 6.0 | 0.00 | 5.82 | 0.00 | 91 | 1012.8 |
| 20260902094403 | 80 | 174 | 2.0 | 3.0 | 0.00 | 5.82 | 0.00 | 91 | 1012.9 |
| 20260902093904 | 80 | 175 | 1.0 | 3.0 | 0.00 | 5.82 | 0.00 | 91 | 1012.9 |
| 20260902093404 | 80 | 198 | 1.0 | 3.0 | 0.00 | 5.82 | 0.00 | 91 | 1013.0 |
| 20260902092904 | 80 | 183 | 1.0 | 5.0 | 0.00 | 5.82 | 0.00 | 91 | 1012.9 |
| 20260902091903 | 80 | 210 | 3.0 | 6.0 | 0.00 | 5.82 | 0.00 | 91 | 1012.8 |
| 20260902091404 | 80 | 208 | 1.0 | 6.0 | 0.00 | 5.82 | 0.00 | 90 | 1012.8 |
| 20260902090404 | 80 | 195 | 1.0 | 5.0 | 0.00 | 5.82 | 0.00 | 90 | 1012.6 |
| 20260902085904 | 80 | 217 | 1.0 | 5.0 | 0.00 | 5.82 | 0.00 | 90 | 1012.6 |
| 20260902084904 | 80 | 179 | 0.0 | 7.0 | 0.00 | 5.82 | 0.00 | 90 | 1012.7 |
| 20260902084404 | 80 | 212 | 1.0 | 7.0 | 0.00 | 5.82 | 0.00 | 90 | 1012.7 |
| 20260902083903 | 80 | 214 | 2.0 | 5.0 | 0.00 | 5.82 | 0.00 | 90 | 1012.7 |
| 20260902083405 | 80 | 180 | 2.0 | 5.0 | 0.00 | 5.82 | 0.00 | 90 | 1012.8 |
| 20260902082405 | 80 | 213 | 2.0 | 5.0 | 0.00 | 5.82 | 0.00 | 90 | 1012.7 |
| 20260902081903 | 80 | 234 | 1.0 | 5.0 | 0.00 | 5.82 | 0.00 | 90 | 1012.7 |
| 20260902081404 | 80 | 212 | 1.0 | 6.0 | 0.00 | 5.82 | 0.00 | 90 | 1012.8 |
| 20260902080904 | 80 | 214 | 2.0 | 6.0 | 0.00 | 5.82 | 0.00 | 90 | 1012.9 |
| 20260902080405 | 80 | 216 | 2.0 | 7.0 | 0.00 | 5.82 | 0.00 | 90 | 1013.0 |
| 20260902075904 | 80 | 212 | 2.0 | 7.0 | 0.00 | 5.82 | 0.00 | 90 | 1013.1 |
| 20260902075404 | 80 | 249 | 0.0 | 6.0 | 0.00 | 5.82 | 0.00 | 90 | 1013.0 |
| 20260902074903 | 81 | 249 | 0.0 | 6.0 | 0.00 | 5.82 | 0.00 | 90 | 1012.9 |
| 20260902074404 | 81 | 183 | 1.0 | 5.0 | 0.00 | 5.82 | 0.00 | 90 | 1013.0 |
| 20260902073904 | 81 | 192 | 0.0 | 8.0 | 0.00 | 5.82 | 0.00 | 90 | 1012.9 |
| 20260902073403 | 81 | 217 | 3.0 | 8.0 | 0.00 | 5.82 | 0.00 | 89 | 1012.9 |
| 20260902072904 | 81 | 172 | 3.0 | 8.0 | 0.00 | 5.82 | 0.00 | 89 | 1012.9 |
| 20260902072404 | 81 | 184 | 2.0 | 6.0 | 0.00 | 5.82 | 0.00 | 89 | 1012.9 |
| 20260902071903 | 81 | 233 | 1.0 | 6.0 | 0.00 | 5.82 | 0.00 | 89 | 1013.0 |
| 20260902071404 | 81 | 198 | 2.0 | 6.0 | 0.00 | 5.82 | 0.00 | 89 | 1013.1 |
| 20260902070404 | 81 | 213 | 1.0 | 3.0 | 0.00 | 5.82 | 0.00 | 89 | 1013.0 |
| 20260902065904 | 81 | 179 | 1.0 | 5.0 | 0.00 | 5.82 | 0.00 | 89 | 1013.0 |
| 20260902065404 | 81 | 178 | 1.0 | 6.0 | 0.00 | 5.82 | 0.00 | 89 | 1012.9 |
| 20260902064905 | 81 | 213 | 2.0 | 9.0 | 0.00 | 5.82 | 0.00 | 89 | 1012.8 |
| 20260902064404 | 81 | 204 | 4.0 | 9.0 | 0.00 | 5.82 | 0.00 | 89 | 1012.9 |
| 20260902063903 | 81 | 190 | 3.0 | 7.0 | 0.00 | 5.82 | 0.00 | 89 | 1012.9 |
| 20260902063404 | 81 | 231 | 2.0 | 6.0 | 0.00 | 5.82 | 0.00 | 89 | 1012.9 |
| 20260902062903 | 81 | 221 | 2.0 | 5.0 | 0.00 | 5.82 | 0.00 | 89 | 1012.9 |
| 20260902062404 | 81 | 172 | 2.0 | 7.0 | 0.00 | 5.82 | 0.00 | 88 | 1012.9 |
| 20260902061904 | 81 | 204 | 1.0 | 7.0 | 0.00 | 5.82 | 0.00 | 88 | 1012.9 |
| 20260902061404 | 81 | 176 | 2.0 | 8.0 | 0.00 | 5.82 | 0.00 | 88 | 1012.8 |
| 20260902060904 | 81 | 162 | 3.0 | 8.0 | 0.00 | 5.82 | 0.00 | 88 | 1012.8 |
| 20260902060404 | 81 | 209 | 7.0 | 7.0 | 0.00 | 5.82 | 0.00 | 88 | 1012.7 |
| 20260902055905 | 81 | 160 | 2.0 | 5.0 | 0.15 | 5.82 | 0.00 | 88 | 1012.8 |
| 20260902055403 | 81 | 215 | 2.0 | 5.0 | 0.63 | 5.82 | 0.00 | 88 | 1012.9 |
| 20260902054905 | 81 | 226 | 1.0 | 7.0 | 1.08 | 5.82 | 0.00 | 88 | 1012.9 |
| 20260902054404 | 81 | 224 | 1.0 | 7.0 | 1.56 | 5.82 | 0.00 | 88 | 1012.7 |
| 20260902053405 | 81 | 204 | 2.0 | 5.0 | 2.64 | 5.82 | 0.00 | 88 | 1012.7 |
| 20260902052903 | 81 | 227 | 3.0 | 5.0 | 3.21 | 5.82 | 0.00 | 88 | 1012.8 |
| 20260902052405 | 81 | 234 | 0.0 | 3.0 | 3.63 | 5.82 | 0.00 | 88 | 1012.8 |
| 20260902051904 | 80 | 241 | 2.0 | 6.0 | 4.11 | 5.82 | 0.00 | 87 | 1012.9 |
| 20260902051405 | 80 | 214 | 1.0 | 6.0 | 4.59 | 5.82 | 0.00 | 87 | 1012.9 |
| 20260902050905 | 80 | 212 | 1.0 | 6.0 | 4.95 | 5.82 | 0.00 | 87 | 1013.0 |
| 20260902045904 | 80 | 209 | 0.0 | 1.0 | 5.85 | 5.82 | 5.82 | 87 | 1013.1 |
| 20260902045403 | 80 | 209 | 0.0 | 2.0 | 5.67 | 5.76 | 5.76 | 86 | 1013.1 |
| 20260902044904 | 80 | 209 | 0.0 | 2.0 | 5.85 | 5.72 | 5.72 | 86 | 1013.1 |
| 20260902044403 | 80 | 209 | 0.0 | 2.0 | 5.88 | 5.67 | 5.67 | 86 | 1013.0 |
| 20260902043904 | 80 | 206 | 0.0 | 0.0 | 5.82 | 5.61 | 5.61 | 86 | 1013.0 |
| 20260902043404 | 80 | 206 | 0.0 | 0.0 | 5.94 | 5.57 | 5.57 | 86 | 1013.0 |
| 20260902042903 | 80 | 206 | 0.0 | 0.0 | 5.79 | 5.50 | 5.50 | 86 | 1013.0 |
| 20260902042404 | 80 | 206 | 0.0 | 0.0 | 5.94 | 5.46 | 5.46 | 86 | 1013.0 |
| 20260902041904 | 80 | 206 | 0.0 | 0.0 | 6.06 | 5.42 | 5.42 | 86 | 1013.0 |
| 20260902041404 | 80 | 206 | 0.0 | 0.0 | 5.97 | 5.36 | 5.36 | 86 | 1013.1 |
| 20260902040903 | 80 | 206 | 0.0 | 0.0 | 6.12 | 5.32 | 5.32 | 86 | 1013.0 |
| 20260902040404 | 80 | 206 | 0.0 | 0.0 | 6.27 | 5.29 | 5.29 | 86 | 1013.1 |
| 20260902035904 | 80 | 206 | 0.0 | 0.0 | 6.24 | 5.23 | 5.23 | 86 | 1013.0 |
| 20260902035404 | 80 | 206 | 0.0 | 0.0 | 6.42 | 5.19 | 5.19 | 86 | 1013.0 |
| 20260902034904 | 80 | 206 | 0.0 | 0.0 | 6.18 | 5.13 | 5.13 | 86 | 1013.1 |
| 20260902034403 | 80 | 206 | 0.0 | 0.0 | 6.45 | 5.08 | 5.08 | 86 | 1013.1 |
| 20260902033904 | 80 | 206 | 0.0 | 0.0 | 6.36 | 5.03 | 5.03 | 86 | 1013.1 |
| 20260902033404 | 80 | 206 | 0.0 | 0.0 | 6.42 | 4.97 | 4.97 | 86 | 1013.2 |
| 20260902032404 | 80 | 206 | 0.0 | 0.0 | 6.33 | 4.87 | 4.87 | 86 | 1013.2 |
| 20260902031404 | 80 | 206 | 0.0 | 0.0 | 6.48 | 4.76 | 4.76 | 86 | 1012.9 |
| 20260902030904 | 80 | 206 | 0.0 | 2.0 | 6.39 | 4.71 | 4.71 | 86 | 1012.9 |
| 20260902030404 | 80 | 206 | 0.0 | 2.0 | 6.33 | 4.66 | 4.66 | 86 | 1012.7 |
| 20260902025903 | 80 | 235 | 0.0 | 0.0 | 6.54 | 4.61 | 4.61 | 86 | 1012.7 |
| 20260902025404 | 80 | 235 | 0.0 | 0.0 | 6.57 | 4.55 | 4.55 | 86 | 1012.5 |
| 20260902024904 | 80 | 235 | 0.0 | 0.0 | 6.66 | 4.51 | 4.51 | 86 | 1012.5 |
| 20260902024404 | 80 | 235 | 0.0 | 0.0 | 6.54 | 4.44 | 4.44 | 86 | 1012.4 |
| 20260902023405 | 80 | 235 | 0.0 | 2.0 | 6.48 | 4.33 | 4.33 | 86 | 1012.3 |
| 20260902022904 | 80 | 235 | 0.0 | 2.0 | 6.33 | 4.28 | 4.28 | 86 | 1012.3 |
| 20260902021904 | 80 | 235 | 1.0 | 3.0 | 6.24 | 4.17 | 4.17 | 86 | 1012.2 |
| 20260902021403 | 80 | 238 | 1.0 | 2.0 | 6.12 | 4.12 | 4.12 | 86 | 1012.1 |
| 20260902020904 | 80 | 238 | 0.0 | 3.0 | 6.15 | 4.07 | 4.07 | 86 | 1012.0 |
| 20260902020404 | 80 | 238 | 1.0 | 3.0 | 6.18 | 4.03 | 4.03 | 86 | 1011.9 |
| 20260902015905 | 80 | 274 | 1.0 | 3.0 | 6.06 | 3.95 | 3.95 | 86 | 1012.0 |
| 20260902015405 | 80 | 275 | 1.0 | 3.0 | 6.06 | 3.89 | 3.89 | 86 | 1012.0 |
| 20260902014904 | 80 | 275 | 1.0 | 2.0 | 6.03 | 3.85 | 3.85 | 86 | 1011.9 |
| 20260902013904 | 80 | 277 | 0.0 | 1.0 | 5.97 | 3.73 | 3.73 | 86 | 1011.7 |
| 20260902013404 | 80 | 277 | 0.0 | 1.0 | 5.97 | 3.68 | 3.68 | 86 | 1011.7 |
| 20260902012903 | 80 | 341 | 0.0 | 0.0 | 6.00 | 3.64 | 3.64 | 85 | 1011.7 |
| 20260902011404 | 81 | 341 | 0.0 | 0.0 | 6.30 | 3.50 | 3.50 | 85 | 1011.5 |
| 20260902010904 | 81 | 341 | 0.0 | 0.0 | 6.30 | 3.46 | 3.46 | 85 | 1011.4 |
| 20260902010404 | 81 | 341 | 0.0 | 0.0 | 6.42 | 3.41 | 3.41 | 84 | 1011.5 |
| 20260902005904 | 81 | 341 | 0.0 | 0.0 | 6.45 | 3.35 | 3.35 | 84 | 1011.5 |
| 20260902005404 | 81 | 341 | 0.0 | 0.0 | 6.27 | 3.29 | 3.29 | 84 | 1011.5 |
| 20260902004403 | 81 | 341 | 0.0 | 0.0 | 6.54 | 3.19 | 3.19 | 84 | 1011.6 |
| 20260902003904 | 81 | 341 | 0.0 | 0.0 | 6.54 | 3.13 | 3.13 | 84 | 1011.6 |
| 20260902003403 | 81 | 341 | 0.0 | 0.0 | 6.72 | 3.09 | 3.09 | 84 | 1011.7 |
| 20260902002904 | 81 | 341 | 0.0 | 0.0 | 6.93 | 3.04 | 3.04 | 84 | 1011.8 |
| 20260902002405 | 81 | 341 | 0.0 | 1.0 | 7.05 | 3.00 | 3.00 | 83 | 1011.9 |
| 20260902001904 | 81 | 341 | 0.0 | 1.0 | 7.02 | 2.94 | 2.94 | 83 | 1011.9 |
| 20260902001404 | 82 | 341 | 0.0 | 2.0 | 6.96 | 2.87 | 2.87 | 83 | 1011.9 |
| 20260901235904 | 82 | 341 | 1.0 | 3.0 | 6.84 | 2.70 | 2.70 | 83 | 1011.9 |